User: anonymous   Login
Location: Caltech
(34.1382°N, 118.1253°W)
Time: 13:00:12
(UTC-08:00)
Language:

SL-08 R/B - Orbit

View from above orbital plane
View from above orbital plane
View from above satellite
View from above satellite

Ground track
Ground track

The orbit data is extracted from the following two-line orbital elements,

1 27561U 02054C   15027.02811519  .00000253  00000-0  68177-4 0  4026
2 27561 098.1338 165.9014 0046084 357.0408 137.4996 14.55180269645421
Epoch (UTC): 27 January 2015 00:40:29
Eccentricity: 0.0046084
inclination: 98.1338°
perigee height: 676 km
apogee height: 741 km
right ascension of ascending node: 165.9014°
argument of perigee: 357.0408°
revolutions per day: 14.55180269
mean anomaly at epoch: 137.4996°
orbit number at epoch: 64542

The dashed part of the orbit path shows where the satellite is in the earth's shadow,  

DLR